TimeCDT,TemperatureF,Dew PointF,Humidity,Sea Level PressureIn,VisibilityMPH,Wind Direction,Wind SpeedMPH,Gust SpeedMPH,PrecipitationIn,Events,Conditions,WindDirDegrees,DateUTC
12:56 AM,45.0,34.0,65,30.16,10.0,NNE,3.5,-,N/A,,Clear,20,2011-10-30 05:56:00
1:56 AM,43.0,34.0,71,30.17,10.0,NNE,4.6,-,N/A,,Clear,30,2011-10-30 06:56:00
2:56 AM,43.0,34.0,71,30.17,10.0,NNE,6.9,-,N/A,,Clear,30,2011-10-30 07:56:00
3:56 AM,42.8,33.8,70,30.17,10.0,NNE,6.9,-,N/A,,Clear,30,2011-10-30 08:56:00
4:56 AM,39.2,33.8,81,30.17,10.0,NE,5.8,-,N/A,,Clear,50,2011-10-30 09:56:00
5:56 AM,39.2,33.8,81,30.19,10.0,NE,5.8,-,N/A,,Clear,40,2011-10-30 10:56:00
6:56 AM,39.0,33.1,79,30.21,10.0,NNE,5.8,-,N/A,,Clear,30,2011-10-30 11:56:00
7:56 AM,44.1,35.1,71,30.22,10.0,NE,5.8,-,N/A,,Partly Cloudy,40,2011-10-30 12:56:00
8:56 AM,51.8,35.6,54,30.23,10.0,East,8.1,-,N/A,,Scattered Clouds,80,2011-10-30 13:56:00
9:56 AM,57.0,36.0,45,30.23,10.0,East,10.4,-,N/A,,Scattered Clouds,80,2011-10-30 14:56:00
10:56 AM,62.1,36.0,38,30.23,10.0,ENE,6.9,-,N/A,,Scattered Clouds,60,2011-10-30 15:56:00
11:56 AM,63.0,37.0,38,30.22,10.0,East,9.2,-,N/A,,Mostly Cloudy,90,2011-10-30 16:56:00
12:56 PM,64.9,36.0,34,30.21,10.0,ENE,5.8,-,N/A,,Mostly Cloudy,70,2011-10-30 17:56:00
1:56 PM,64.9,37.0,36,30.18,10.0,Variable,3.5,-,N/A,,Mostly Cloudy,0,2011-10-30 18:56:00
2:56 PM,66.0,37.0,34,30.17,10.0,Variable,4.6,-,N/A,,Mostly Cloudy,0,2011-10-30 19:56:00
3:56 PM,66.2,37.4,35,30.17,10.0,NNE,6.9,-,N/A,,Mostly Cloudy,20,2011-10-30 20:56:00
4:56 PM,63.0,37.0,38,30.17,10.0,NE,5.8,-,N/A,,Mostly Cloudy,40,2011-10-30 21:56:00
5:56 PM,60.1,39.0,46,30.17,10.0,Calm,Calm,-,N/A,,Mostly Cloudy,0,2011-10-30 22:56:00
6:56 PM,55.0,42.1,62,30.18,10.0,ENE,4.6,-,N/A,,Scattered Clouds,60,2011-10-30 23:56:00
7:56 PM,53.1,39.0,59,30.19,10.0,NE,5.8,-,N/A,,Scattered Clouds,50,2011-10-31 00:56:00
8:56 PM,51.1,39.0,63,30.19,10.0,NE,4.6,-,N/A,,Scattered Clouds,50,2011-10-31 01:56:00
9:56 PM,50.0,37.9,63,30.20,10.0,Calm,Calm,-,N/A,,Partly Cloudy,0,2011-10-31 02:56:00
10:56 PM,50.0,37.0,61,30.20,10.0,NE,5.8,-,N/A,,Partly Cloudy,50,2011-10-31 03:56:00
11:56 PM,48.0,37.0,66,30.20,10.0,Calm,Calm,-,N/A,,Clear,0,2011-10-31 04:56:00